Hourly Data Report for May 03, 2012

All times are specified in Local Standard Time (LST). Add 1 hour to adjust for Daylight Saving Time where and when it is observed.

SAULT STE MARIE A
ONTARIO

46°29'06.000" N
84°30'35.000" W
192.00 m
6057591
71260
YAM

Related Data

No related data is available for this station

Download Data

Hourly Data (May 2012)
Hourly Data Report for May 3, 2012
Temp Definition
°C
Dew Point Temp Definition
°C
Rel Hum Definition
%
Wind Dir Definition
10's deg

Wind Spd Definition
km/h
Visibility Definition
km
Stn Press Definition
kPa
Hmdx Definition


Wind Chill Definition


Weather Definition


TIME
00:00 Legend Double Dagger 8.7 8.7 100 8 7 0.8 99.21     Fog
01:00 Legend Double Dagger 8.5 8.5 100 8 9 0.8 99.17     Fog
02:00 Legend Double Dagger 8.7 8.7 100 10 7 0.8 99.15     Fog
03:00 Legend Double Dagger 8.6 8.6 100 9 8 0.4 99.21     Fog
04:00 Legend Double Dagger 8.5 8.5 100 8 16 0.4 99.16     Fog
05:00 Legend Double Dagger 8.6 8.6 100 7 21 1.0 99.10     Fog
06:00 Legend Double Dagger 8.7 8.7 100 8 15 1.0 99.14     Fog
07:00 Legend Double Dagger 9.1 9.1 100 9 11 4.0 99.22     Fog
08:00 Legend Double Dagger 10.2 10.2 100 9 17 6.4 99.10     Fog
09:00 Legend Double Dagger 11.5 10.9 96 9 23 10.0 99.04     LegendNANA
10:00 Legend Double Dagger 12.1 11.0 93 12 11 10.0 99.14     Cloudy
11:00 Legend Double Dagger 12.9 11.2 89 9 20 10.0 99.11     LegendNANA
12:00 Legend Double Dagger 13.5 11.6 88 10 18 10.0 99.02     LegendNANA
13:00 Legend Double Dagger 13.0 11.7 92 10 10 10.0 99.04     Cloudy
14:00 Legend Double Dagger 12.2 11.3 94 10 16 10.0 99.00     LegendNANA
15:00 Legend Double Dagger 11.3 11.3 100 7 20 10.0 98.76     LegendNANA
16:00 Legend Double Dagger 11.9 11.6 98 9 13 10.0 98.68     Cloudy
17:00 Legend Double Dagger 12.6 12.0 96 11 14 10.0 98.80     LegendNANA
18:00 Legend Double Dagger 11.4 11.3 99 9 10 8.1 98.84     Fog
19:00 Legend Double Dagger 11.1 11.1 100 7 9 4.0 98.83     Fog
20:00 Legend Double Dagger 10.7 10.7 100 8 9 1.6 98.82     Fog
21:00 Legend Double Dagger 11.0 11.0 100 10 4 8.1 98.92     Fog
22:00 Legend Double Dagger 11.1 11.1 100   0 10.0 98.98     Fog
23:00 Legend Double Dagger 10.9 10.9 100 22 4 1.6 98.99     Fog

Notes on Data Quality.

Legend

  • E = Estimated
  • M = Missing
  • NA = Not Available
  • ‡ = Partner data that is not subject to review by the National Climate Archives
Date modified: